Flag for Venezuela Weather past 2 weeks in Barquisimeto, Venezuela

Now
75 °F

Passing clouds.


Feels Like: 75 °F
Forecast: 65 / 93 °F
Wind: 10 mph from East

Location: Barquisimeto Airport

Current Time: Aug 23, 2014 at 12:02:36 AM

Latest Report: Aug 22, 2014 at 10:30 PM


Visibility: N/A

Pressure: 29.98 "Hg

Humidity: 83%

Dew point: 70 °F

Location of BarquisimetoLocation

Historic Weather in Barquisimeto — Graph

°F

Barquisimeto temperature yesterday

Maximum temperature yesterday: 91 °F (at 1:30 PM)
Minimum temperature yesterday: 72 °F (at 4:30 AM)
Average temperature yesterday: 80 °F

Past Weeks' High & Low Weather Summary

 TemperatureHumidityPressure
High91 °F (Aug 22, 1:30 PM)100% (Aug 7, 10:30 PM)30.09 "Hg (Aug 7, 10:30 PM)
Low66 °F (Aug 18, 5:30 AM)43% (Aug 11, 3:30 PM)29.86 "Hg (Aug 22, 3:30 PM)
Average77 °F75%30.02 "Hg
* Reported Aug 7 10:30 PM — Aug 22 10:30 PM, Barquisimeto, Weather by CustomWeather, © 2014

Note: Actual official high and low records may vary slightly from our data, if they occured in-between our weather recording intervals... More about our weather records

Advertising

Barquisimeto weather history for previous 24 hours

 ConditionsComfort  
Time TempWeatherWind HumidityBarometerVisibility
10:30 PM
Aug 22
75 °FPassing clouds.10 mph83%29.98 "HgN/A
9:30 PM77 °FPassing clouds.8 mph79%29.98 "HgN/A
8:30 PM77 °FPassing clouds.10 mph79%29.95 "HgN/A
7:30 PM79 °FPassing clouds.14 mph74%29.92 "HgN/A
6:30 PM82 °FPassing clouds.12 mph62%29.86 "HgN/A
5:30 PM84 °FPassing clouds.10 mph55%29.86 "HgN/A
4:30 PM90 °FPassing clouds.15 mph43%29.86 "HgN/A
3:30 PM91 °FPassing clouds.12 mph44%29.86 "HgN/A
2:30 PM91 °FPassing clouds.12 mph44%29.89 "HgN/A
1:30 PM91 °FScattered clouds.15 mph44%29.92 "HgN/A
12:30 PM88 °FBroken clouds.15 mph49%29.98 "HgN/A
11:30 AM84 °FBroken clouds.13 mph58%29.98 "HgN/A
10:30 AM82 °FBroken clouds.14 mph62%30.01 "HgN/A
9:30 AM79 °FBroken clouds.10 mph74%30.01 "HgN/A
8:30 AM73 °FPartly sunny.5 mph89%30.01 "HgN/A
7:30 AM72 °FPartly sunny.3 mph94%29.98 "HgN/A
6:30 AM72 °FPartly sunny.3 mph94%29.98 "HgN/A
5:30 AM72 °FPartly sunny.5 mph94%29.98 "HgN/A
4:30 AM72 °FPassing clouds.6 mph94%29.98 "HgN/A
1:30 AM73 °FPassing clouds.12 mph89%30.01 "HgN/A
Weather by CustomWeather, © 2014

See weather overviewHow to use our weather pages